Weather reports worldwide

Advertisment
Zamora, Spain (8130): temperature & dewpoint: 15.05.2019 05:00:00 - 21.05.2019 05:00:00 (CEST)Zamora, Spain (8130): wind speed: 15.05.2019 05:00:00 - 21.05.2019 05:00:00 (CEST)Zamora, Spain (8130): wind direction: 15.05.2019 05:00:00 - 21.05.2019 05:00:00 (CEST)Zamora, Spain (8130): reduced air pressure: 15.05.2019 05:00:00 - 21.05.2019 05:00:00 (CEST)Zamora, Spain (8130): visibility: 15.05.2019 05:00:00 - 21.05.2019 05:00:00 (CEST)Zamora, Spain (8130): precipitation: 15.05.2019 05:00:00 - 21.05.2019 05:00:00 (CEST)
Date & Time tt [°C] td [°C] ff [km/h] ff [kn] dd ppp [hPa] vv [km] rr [mm]
21.05.2019 05:00:00 10,0 5,6 8 4 NNW 1015,5 18 -
21.05.2019 04:00:00 11,2 4,4 8 4 NNW 1015,1 20 0,0
21.05.2019 03:00:00 12,5 3,7 4 2 W 1014,6 20 0,0
21.05.2019 02:00:00 13,4 3,2 4 2 WNW 1014,4 20 -
21.05.2019 01:00:00 14,1 3,2 4 2 W 1014,1 20 0,0
21.05.2019 00:00:00 15,0 3,2 5 3 W 1013,7 20 0,0
20.05.2019 23:00:00 15,5 2,6 5 3 W 1013,2 20 -
20.05.2019 22:00:00 17,0 3,3 5 3 WNW 1012,0 20 0,0
20.05.2019 21:00:00 19,4 1,8 4 2 NW 1010,8 20 0,0
20.05.2019 20:00:00 20,7 1,0 4 2 NW 1010,5 20 -
20.05.2019 19:00:00 20,6 1,9 5 3 W 1010,4 20 0,0
20.05.2019 18:00:00 20,3 1,7 8 4 W 1010,6 18 0,0
20.05.2019 17:00:00 19,6 0,6 4 2 W 1010,9 20 -
20.05.2019 16:00:00 20,7 1,0 5 3 SSE 1010,7 20 0,0
20.05.2019 15:00:00 20,2 1,6 8 4 ESE 1011,1 20 0,0
20.05.2019 14:00:00 18,4 1,4 8 4 W 1012,3 20 -
20.05.2019 13:00:00 16,7 2,7 8 4 SE 1012,9 20 0,0
20.05.2019 12:00:00 15,1 4,5 5 3 ENE 1013,6 20 0,0
20.05.2019 11:00:00 13,5 4,4 8 4 E 1014,3 20 -
20.05.2019 10:00:00 10,0 3,9 5 3 ENE 1015,3 19 0,0
20.05.2019 09:00:00 7,7 3,0 8 4 NNE 1015,9 19 0,0
20.05.2019 08:00:00 4,9 2,1 5 3 N 1016,1 20 -
20.05.2019 07:00:00 4,9 1,9 5 3 N 1015,6 18 0,0
20.05.2019 06:00:00 5,4 2,0 4 2 NNE 1015,6 19 0,0
20.05.2019 05:00:00 6,2 2,3 4 2 NNE 1015,4 19 -
20.05.2019 04:00:00 7,1 3,0 5 3 NNE 1015,3 19 0,0
20.05.2019 03:00:00 7,9 3,4 8 4 NE 1015,0 20 0,0
20.05.2019 02:00:00 9,5 2,8 9 5 ENE 1014,5 20 -
20.05.2019 01:00:00 11,8 0,2 2 1 WNW 1013,4 20 0,0
20.05.2019 00:00:00 13,4 -0,3 5 3 WNW 1012,8 20 0,0
19.05.2019 23:00:00 14,8 -1,8 5 3 W 1012,2 20 -
19.05.2019 22:00:00 17,1 -2,1 5 3 W 1010,9 20 0,0
19.05.2019 21:00:00 19,0 -2,1 5 3 WSW 1009,9 20 0,0
19.05.2019 20:00:00 19,8 -2,6 5 3 NNW 1009,4 20 -
19.05.2019 19:00:00 19,8 -2,6 4 2 W 1009,5 20 0,0
19.05.2019 18:00:00 20,3 -1,5 5 3 N 1009,4 20 0,0
19.05.2019 17:00:00 20,4 -2,7 8 4 SSE 1010,2 20 -
19.05.2019 16:00:00 19,1 -3,8 8 4 W 1011,2 20 0,0
19.05.2019 15:00:00 18,9 -3,3 8 4 W 1011,4 20 0,0
19.05.2019 14:00:00 17,6 0,7 9 5 SSE 1012,2 20 -
19.05.2019 13:00:00 16,3 0,8 5 3 SE 1012,8 20 0,0
19.05.2019 12:00:00 13,7 2,0 5 3 SE 1013,9 20 0,0
19.05.2019 11:00:00 12,6 1,9 5 3 N 1014,2 20 -
19.05.2019 10:00:00 10,1 2,4 5 3 N 1014,9 20 0,0
19.05.2019 09:00:00 7,5 3,4 4 2 W 1015,6 20 0,0
19.05.2019 08:00:00 5,6 2,2 2 1 WNW 1015,9 20 -
19.05.2019 07:00:00 5,1 1,8 0 0 N 1015,8 20 0,0
19.05.2019 06:00:00 6,3 2,2 2 1 SW 1015,4 20 0,0
19.05.2019 05:00:00 6,5 1,8 2 1 W 1015,4 20 -
19.05.2019 04:00:00 6,5 1,6 2 1 WNW 1015,3 20 0,0
19.05.2019 03:00:00 7,7 2,0 4 2 W 1015,0 20 0,0
19.05.2019 02:00:00 8,1 2,5 0 0 N 1015,1 20 -
19.05.2019 01:00:00 9,0 2,5 2 1 WNW 1014,8 20 0,0
19.05.2019 00:00:00 10,0 3,0 8 4 N 1014,5 20 0,0
18.05.2019 23:00:00 11,6 4,8 8 4 N 1013,9 20 -
18.05.2019 22:00:00 12,6 3,8 15 8 N 1012,8 20 0,2
18.05.2019 21:00:00 14,5 3,3 9 5 ENE 1011,7 19 0,0
18.05.2019 20:00:00 15,8 -1,8 9 5 WNW 1010,7 20 -
18.05.2019 19:00:00 15,8 1,9 9 5 N 1010,6 20 0,0
18.05.2019 18:00:00 15,5 1,9 13 7 N 1010,6 20 0,0
18.05.2019 17:00:00 17,0 0,2 5 3 W 1010,2 20 -
18.05.2019 16:00:00 17,2 -0,5 9 5 W 1010,5 20 0,0
18.05.2019 15:00:00 17,1 0,3 8 4 WSW 1010,7 20 0,0
18.05.2019 14:00:00 15,8 0,7 8 4 W 1011,5 20 -
18.05.2019 13:00:00 15,7 0,3 8 4 WNW 1011,8 19 0,0
18.05.2019 12:00:00 14,0 0,6 5 3 W 1012,2 20 0,0
18.05.2019 11:00:00 12,0 1,3 8 4 WNW 1012,6 20 -
18.05.2019 10:00:00 10,0 2,1 5 3 WNW 1013,4 20 0,0
18.05.2019 09:00:00 7,6 1,6 5 3 W 1013,8 20 0,0
18.05.2019 08:00:00 5,5 1,6 5 3 W 1014,2 20 -
18.05.2019 07:00:00 5,0 1,3 5 3 W 1014,5 20 0,0
18.05.2019 06:00:00 5,4 0,9 5 3 W 1014,3 20 0,0
18.05.2019 05:00:00 5,9 1,0 5 3 WNW 1014,4 20 -
18.05.2019 04:00:00 6,5 0,8 8 4 W 1014,5 20 0,0
18.05.2019 03:00:00 7,0 0,6 5 3 W 1014,7 20 0,0
18.05.2019 02:00:00 7,8 1,2 8 4 WNW 1014,6 20 -
18.05.2019 01:00:00 8,7 1,1 4 2 W 1014,4 20 0,0
18.05.2019 00:00:00 9,5 0,4 8 4 WNW 1014,3 20 0,0
17.05.2019 23:00:00 10,7 0,4 8 4 WNW 1013,7 20 -
17.05.2019 22:00:00 12,2 1,5 8 4 WNW 1012,5 20 0,0
17.05.2019 21:00:00 14,2 1,8 8 4 WNW 1011,5 20 0,0
17.05.2019 20:00:00 15,8 1,1 9 5 NW 1010,6 20 -
17.05.2019 19:00:00 17,0 0,6 11 6 NW 1010,0 20 0,0
17.05.2019 18:00:00 17,6 1,1 9 5 WNW 1009,6 20 0,0
17.05.2019 17:00:00 19,0 -0,4 11 6 WNW 1009,3 20 -
17.05.2019 16:00:00 18,2 1,2 11 6 WNW 1009,9 20 0,0
17.05.2019 15:00:00 17,1 3,0 11 6 WNW 1010,4 20 0,0
17.05.2019 14:00:00 16,8 3,8 11 6 W 1011,0 20 -
17.05.2019 13:00:00 16,6 4,9 11 6 W 1011,2 20 0,0
17.05.2019 12:00:00 15,5 3,6 11 6 WNW 1011,4 20 0,0
17.05.2019 11:00:00 13,5 4,1 11 6 W 1011,6 20 -
17.05.2019 10:00:00 12,2 4,2 13 7 W 1011,4 20 0,0
17.05.2019 09:00:00 11,1 4,5 11 6 W 1011,4 20 0,0
17.05.2019 08:00:00 8,8 4,2 9 5 W 1011,8 20 -
17.05.2019 07:00:00 8,1 4,1 9 5 W 1011,5 20 0,0
17.05.2019 06:00:00 8,4 4,2 9 5 W 1011,0 20 0,0
17.05.2019 05:00:00 9,1 4,3 11 6 W 1010,4 20 -
17.05.2019 04:00:00 10,0 3,7 8 4 W 1010,2 20 0,0
17.05.2019 03:00:00 10,3 4,2 9 5 W 1010,3 20 0,0
17.05.2019 02:00:00 10,2 4,1 9 5 WNW 1011,1 20 -
17.05.2019 01:00:00 10,2 4,1 8 4 W 1011,1 20 0,0
17.05.2019 00:00:00 10,7 3,7 8 4 W 1011,0 20 0,0
16.05.2019 23:00:00 11,7 3,2 9 5 WNW 1009,8 20 -
16.05.2019 22:00:00 13,2 4,9 13 7 WNW 1008,4 20 0,0
16.05.2019 21:00:00 14,3 5,4 11 6 W 1008,2 20 0,0
16.05.2019 20:00:00 16,9 5,2 15 8 W 1006,2 20 -
16.05.2019 19:00:00 19,3 7,4 13 7 W 1005,3 20 0,0
16.05.2019 18:00:00 19,7 6,1 13 7 WNW 1005,5 20 0,0
16.05.2019 17:00:00 21,9 2,6 15 8 W 1004,9 20 -
16.05.2019 16:00:00 19,5 7,2 9 5 W 1005,8 20 0,0
16.05.2019 15:00:00 20,7 10,5 9 5 W 1005,9 16 0,0
16.05.2019 14:00:00 24,8 9,1 11 6 W 1004,8 20 -
16.05.2019 13:00:00 24,7 8,2 9 5 WNW 1005,2 15 0,0
16.05.2019 12:00:00 22,6 7,2 8 4 W 1006,3 13 0,0
16.05.2019 11:00:00 20,3 4,7 5 3 W 1007,8 20 -
16.05.2019 10:00:00 17,8 4,7 5 3 NW 1008,7 17 0,0
16.05.2019 09:00:00 15,4 4,7 5 3 NNW 1009,7 15 0,0
16.05.2019 08:00:00 12,6 4,8 4 2 NW 1010,4 20 -
16.05.2019 07:00:00 12,5 4,7 2 1 NW 1010,4 15 0,0
16.05.2019 06:00:00 13,7 4,8 4 2 NW 1010,3 20 0,0
16.05.2019 05:00:00 14,9 5,1 4 2 NNW 1010,4 20 -
16.05.2019 04:00:00 16,5 4,5 2 1 NW 1010,2 20 0,0
16.05.2019 03:00:00 18,4 5,9 4 2 NW 1010,1 20 0,0
16.05.2019 02:00:00 19,8 6,2 2 1 WNW 1010,2 20 -
16.05.2019 01:00:00 21,0 5,7 4 2 WNW 1009,7 20 0,0
16.05.2019 00:00:00 22,5 5,8 5 3 WNW 1009,6 20 0,0
15.05.2019 23:00:00 25,0 6,7 5 3 W 1008,6 20 -
15.05.2019 22:00:00 26,7 8,2 4 2 W 1007,8 20 0,0
15.05.2019 21:00:00 29,1 4,5 4 2 W 1007,3 20 0,0
15.05.2019 20:00:00 30,5 4,3 5 3 W 1006,8 20 -
15.05.2019 19:00:00 31,2 4,8 5 3 NW 1006,8 20 0,0
15.05.2019 18:00:00 32,1 3,1 4 2 WSW 1006,8 20 0,0
15.05.2019 17:00:00 32,3 4,1 5 3 W 1007,1 20 -
15.05.2019 16:00:00 31,7 4,5 4 2 SSE 1008,0 20 0,0
15.05.2019 15:00:00 30,2 4,0 4 2 ENE 1008,9 20 0,0
15.05.2019 14:00:00 28,2 3,8 5 3 SE 1009,9 20 -
15.05.2019 13:00:00 25,9 0,5 4 2 WSW 1011,2 16 0,0
15.05.2019 12:00:00 23,4 3,8 4 2 ESE 1012,2 20 0,0
15.05.2019 11:00:00 20,0 4,9 4 2 NE 1013,3 20 -
15.05.2019 10:00:00 16,4 4,4 5 3 ENE 1014,5 20 0,0
15.05.2019 09:00:00 12,7 4,1 2 1 NNE 1015,6 20 0,0
15.05.2019 08:00:00 10,9 3,7 4 2 N 1015,8 20 -
15.05.2019 07:00:00 10,7 3,0 2 1 NW 1015,4 19 0,0
15.05.2019 06:00:00 11,2 3,5 4 2 NNW 1015,0 16 0,0
15.05.2019 05:00:00 12,0 3,0 5 3 NNE 1014,9 17 -

tt = temperature
td = dewpoint
ff = wind speed
dd = wind direction
ppp = reduced air pressure
vv = visibility
rr = precipitation

Next stations